Helicity
110 40 41 66 86 78 55 42 163 100 74 156 108 135 94 130 188 197 55 137 174 131 80 86 74 62 39 50 61 55 62 27 24 31 19 12 6 2 11 24 8 -11 -18 -14 -21 -1 12 7 3
70 63 61 69 90 65 44 122 205 210 221 118 84 95 105 168 97 76 64 69 112 86 117 113 76 61 51 43 56 68 56 41 32 25 27 17 7 10 15 19 7 -12 -25 -14 1 -7 25 18 18
64 62 93 82 75 89 139 165 279 315 129 93 127 100 157 267 203 76 87 73 89 168 153 156 134 64 44 42 43 55 52 54 29 16 16 26 10 3 0 1 0 -1 -13 -16 5 21 41 34 19
86 94 99 126 101 96 123 202 208 158 95 13 80 101 113 112 142 179 86 70 110 171 105 171 170 164 76 59 45 39 35 24 19 16 17 42 19 9 2 6 7 6 6 12 13 17 44 35 26
60 71 98 48 39 44 154 202 126 104 91 97 122 80 147 167 146 147 94 110 183 227 111 159 173 181 160 141 134 65 27 19 11 20 21 25 18 12 13 15 9 16 13 14 28 35 44 42 35
51 60 50 41 34 135 125 233 193 97 106 112 155 127 127 214 134 149 124 155 232 202 139 144 150 159 160 140 124 112 106 93 73 31 18 19 19 11 12 18 24 23 6 10 19 29 38 38 39
75 73 58 53 80 88 202 236 145 139 115 100 169 194 165 128 118 172 152 163 207 203 122 114 135 131 135 120 114 112 108 90 77 73 48 24 20 22 13 11 13 14 13 13 21 24 37 45 41
89 97 76 95 64 91 200 186 138 150 116 177 168 205 177 281 280 217 167 200 130 152 158 134 121 83 89 84 89 91 89 79 67 59 53 54 36 30 23 21 15 16 11 24 25 20 25 44 58
63 83 63 41 92 98 148 79 95 86 128 87 93 117 136 182 192 180 140 151 178 193 156 160 129 100 118 93 86 55 40 39 40 45 39 40 57 56 48 42 31 26 28 31 29 24 25 60 72
35 29 9 61 82 54 60 90 77 111 120 89 88 95 89 186 178 169 133 126 134 141 142 143 150 102 86 82 66 55 55 59 63 66 73 68 60 63 58 53 37 40 44 44 36 36 55 102 114
8 11 38 48 62 88 81 77 94 132 136 157 162 125 100 157 194 151 108 137 126 91 134 116 168 160 102 75 85 84 63 66 71 62 69 78 88 85 79 93 81 81 78 99 82 86 104 131 136
18 55 51 58 60 76 91 84 133 127 140 98 72 75 95 88 149 188 135 132 155 194 198 203 177 134 126 99 69 45 89 73 90 68 65 74 79 89 80 83 92 105 113 104 112 128 134 131 119
52 35 48 39 39 86 95 110 132 107 98 92 96 96 95 100 102 127 173 130 126 142 168 129 98 132 101 118 108 104 93 78 69 88 90 75 64 59 62 63 91 124 126 123 110 118 127 143 136
24 21 31 47 81 90 105 98 120 121 60 93 112 155 146 142 135 125 127 163 162 105 102 103 105 80 105 108 99 110 109 103 95 80 59 57 60 57 54 60 46 77 140 143 138 108 128 155 151
9 27 69 89 122 103 119 82 129 102 128 119 151 169 166 202 224 184 121 95 123 117 93 82 76 79 58 80 81 87 78 75 67 60 55 49 50 57 60 54 60 53 90 129 132 135 120 122 145
73 79 51 120 163 177 168 136 102 58 79 114 122 104 125 131 186 158 119 71 88 124 118 66 74 85 99 67 87 88 70 57 50 48 52 51 52 51 61 67 70 69 78 108 157 158 147 146 147
104 39 34 76 128 134 197 143 92 52 93 114 119 110 93 69 120 111 131 71 53 31 49 90 114 115 70 76 83 83 73 59 50 44 46 44 49 56 65 72 77 86 102 104 137 150 155 151 151
-17 47 81 47 108 162 78 106 67 81 106 131 124 127 120 103 104 72 31 108 -16 20 71 94 134 110 80 76 71 62 48 41 39 41 44 48 61 71 74 80 86 93 106 122 128 162 192 170 165
47 60 74 92 151 72 115 86 73 32 183 151 133 141 134 106 58 32 32 -4 36 61 80 94 73 89 85 59 45 43 38 40 49 62 81 88 79 78 86 88 100 108 126 121 127 146 163 221 192
56 68 50 97 153 43 73 83 -13 83 228 224 159 130 122 111 58 96 70 50 28 41 34 39 30 47 62 58 40 39 44 44 39 40 44 46 53 62 74 81 95 113 131 141 143 138 159 180 216
36 27 103 110 42 62 70 40 62 126 188 204 157 122 99 98 59 79 68 77 83 40 11 29 35 38 45 38 41 38 33 41 48 32 41 41 35 47 63 73 93 108 128 155 160 160 172 166 207
61 117 88 59 79 75 88 67 148 136 130 135 130 112 75 71 60 14 12 55 71 36 15 0 5 30 27 25 44 33 32 29 32 35 29 27 26 22 32 47 69 92 109 110 124 159 156 179 178
38 42 58 66 96 75 93 75 76 171 95 69 101 111 96 67 37 52 41 13 52 53 34 -22 -62 -37 60 38 41 37 25 26 30 35 29 37 29 20 7 38 50 67 87 95 102 100 149 166 164
40 82 100 122 111 103 141 106 104 148 104 51 71 75 105 88 65 42 32 34 31 39 35 20 12 14 38 66 21 27 21 17 28 30 35 30 31 28 17 4 22 45 64 74 83 91 99 119 150
50 52 59 87 95 87 166 137 104 203 163 64 45 48 69 80 73 81 76 66 58 59 67 51 35 25 37 41 58 47 14 11 14 25 32 18 20 18 17 18 7 20 44 75 84 80 85 92 124
42 43 93 107 122 169 153 132 130 236 181 56 28 14 74 65 65 76 78 78 72 54 47 43 40 40 54 56 51 47 54 60 50 43 53 28 15 18 26 29 25 11 6 38 71 108 106 100 106
66 98 116 125 117 171 106 112 259 205 196 207 66 38 50 40 25 28 47 61 73 79 81 79 47 18 17 31 50 67 71 66 67 56 67 56 22 11 11 14 15 25 27 34 49 92 100 120 127
70 97 139 128 162 118 163 178 146 154 325 181 66 23 51 71 53 29 15 22 57 94 84 81 74 58 39 22 20 24 20 46 89 82 78 72 44 25 21 10 6 14 28 36 21 96 107 113 124
80 102 122 123 102 174 180 119 146 220 181 126 77 72 80 96 91 48 29 19 19 24 56 108 122 106 92 72 57 71 66 100 111 105 92 99 82 37 28 21 19 15 10 18 35 45 85 99 90
122 115 163 164 136 205 247 312 53 113 158 94 51 75 115 110 75 56 34 26 28 25 22 41 82 137 148 128 130 130 130 140 137 130 118 101 95 59 41 40 34 33 19 23 34 39 49 98 92
Wind_Speed
43 38 36 31 35 35 43 44 39 46 43 43 46 44 44 47 40 39 28 29 27 25 17 9 9 13 14 12 13 15 17 18 18 20 19 20 21 22 22 23 25 25 24 23 21 20 17 18 19
41 37 30 32 38 39 44 42 43 43 44 50 48 47 44 40 36 28 27 28 28 24 22 15 13 11 13 14 13 14 17 20 17 18 21 20 24 25 25 25 25 25 24 24 25 15 16 17 18
37 33 33 36 37 44 50 48 49 52 48 50 53 43 49 44 42 31 27 26 25 26 28 29 25 21 16 15 15 16 17 19 18 18 17 19 21 26 27 26 24 24 23 24 24 15 15 15 18
35 31 35 40 46 48 50 48 50 56 51 43 48 50 40 37 40 35 27 27 26 24 26 30 29 28 26 25 20 19 19 21 19 18 18 18 19 22 24 25 24 23 22 21 20 15 13 14 16
31 34 38 38 43 45 43 51 54 57 57 54 47 49 53 39 37 32 32 31 28 27 25 29 29 28 28 29 30 32 29 28 29 28 27 22 23 23 23 22 25 22 22 21 19 14 11 13 14
30 30 37 43 43 47 46 47 55 59 61 61 57 55 55 37 38 31 29 34 34 32 31 28 28 27 28 30 33 35 35 36 40 40 35 28 24 25 26 22 19 21 23 18 17 17 9 11 12
33 34 38 42 52 58 53 55 58 63 67 68 62 64 55 47 41 34 35 34 34 32 30 26 27 29 29 29 31 33 35 37 39 42 42 42 39 31 29 29 27 24 20 22 19 16 8 7 9
37 37 40 41 48 56 53 58 59 62 67 62 51 64 66 53 43 42 43 44 41 39 36 32 28 25 28 30 33 35 36 38 41 41 42 42 43 42 39 36 35 32 29 20 23 24 21 10 7
37 42 45 50 53 50 47 53 48 56 56 52 57 63 62 54 51 52 56 54 48 44 44 41 34 31 32 30 34 36 37 38 42 45 45 44 44 44 44 44 43 39 35 30 27 28 32 20 14
35 40 45 44 47 52 55 55 55 56 57 63 69 64 56 53 55 60 63 63 59 56 48 43 43 38 34 37 34 37 38 43 42 44 48 48 47 46 46 46 46 46 41 39 39 37 28 18 24
36 38 48 38 40 38 35 41 44 48 50 54 67 71 75 73 56 57 57 60 61 58 53 47 45 44 41 41 39 43 40 40 44 46 48 53 56 51 49 50 50 48 46 44 42 40 33 24 25
38 19 19 22 29 35 35 40 33 37 39 39 37 50 58 67 70 60 63 62 64 62 57 54 53 50 47 47 44 44 42 45 45 48 49 50 54 58 59 54 53 52 49 48 44 40 36 34 33
15 13 23 18 16 23 25 33 32 34 32 30 30 31 40 50 59 66 60 61 67 70 66 60 56 57 50 51 51 49 48 49 48 50 52 55 58 61 63 63 56 50 51 51 50 47 41 36 36
18 7 6 12 20 25 33 34 40 34 31 33 37 36 38 46 56 63 69 66 62 63 66 66 63 54 52 53 50 50 50 52 53 55 57 59 60 62 66 66 69 63 47 48 49 53 51 46 43
8 9 6 23 32 35 48 39 39 37 52 48 44 42 40 43 44 54 71 77 70 71 67 63 64 55 52 52 52 52 53 55 56 58 60 63 62 63 65 69 70 71 65 48 48 49 51 50 48
19 22 28 32 36 36 46 35 33 43 45 48 53 54 49 47 43 35 51 62 66 68 62 53 54 56 54 52 53 53 55 57 59 60 61 64 65 65 65 68 70 70 71 67 48 47 50 48 45
30 21 21 38 35 34 35 37 37 40 41 52 60 59 53 51 44 20 33 45 54 64 70 55 46 49 54 55 54 56 59 61 62 63 61 62 64 64 66 66 67 67 66 66 61 49 46 53 56
14 31 39 29 40 44 40 33 38 37 43 54 60 62 57 53 46 27 18 28 50 47 43 43 40 43 51 53 54 56 58 60 59 59 60 60 60 63 65 65 65 65 66 65 62 60 50 51 52
37 31 31 33 47 59 42 39 38 37 49 52 64 60 56 50 43 32 25 22 36 31 32 36 38 40 45 52 56 58 59 57 57 58 58 60 60 62 66 68 67 64 64 63 63 63 63 56 51
32 33 37 51 52 55 40 36 32 40 50 54 62 60 51 46 38 37 28 24 24 17 20 30 43 41 42 47 52 54 55 56 59 61 64 66 66 65 65 66 66 66 68 68 66 66 68 66 54
41 38 50 54 61 37 46 41 43 48 50 54 58 60 51 42 37 29 27 25 29 29 27 4 34 39 40 43 49 53 54 56 57 58 55 58 64 67 66 66 65 68 72 73 72 69 67 73 68
52 47 56 55 57 54 55 50 43 53 60 59 59 58 57 46 36 29 26 26 27 23 35 35 31 39 43 46 48 50 54 59 58 58 60 62 61 65 65 67 66 66 67 73 75 71 70 68 72
42 62 53 45 47 50 41 47 37 52 61 60 58 54 53 50 40 32 23 19 22 23 23 34 35 25 33 50 50 54 59 58 58 58 60 62 63 62 64 63 62 63 65 68 71 75 75 70 72
51 58 53 36 44 49 40 48 41 49 54 59 57 52 48 45 42 35 29 24 20 18 22 22 14 3 3 26 54 55 58 61 60 60 62 61 59 60 60 63 64 64 63 64 64 66 71 74 74
66 66 64 57 55 56 44 52 36 42 46 54 57 52 46 41 36 31 26 21 17 15 14 14 16 12 4 2 14 45 59 62 63 63 59 61 63 63 63 63 65 65 62 58 57 59 59 63 67
57 56 58 64 63 65 50 44 44 39 39 41 50 49 50 45 38 30 23 18 14 9 8 10 11 9 4 10 15 18 34 49 55 55 54 59 61 61 61 62 64 67 66 64 59 56 57 56 61
57 56 48 55 53 61 48 44 45 37 40 50 59 62 58 56 51 36 29 24 15 9 6 7 12 17 16 11 4 19 30 33 43 50 53 57 60 63 64 65 67 68 66 67 67 62 63 60 61
52 51 56 54 67 72 61 61 59 41 43 57 62 65 60 57 56 52 49 42 30 16 9 5 3 17 20 18 18 16 15 11 38 51 50 53 60 63 65 67 68 68 68 67 71 60 58 61 63
57 54 48 52 57 66 74 58 53 55 50 58 63 63 58 58 58 57 55 53 49 46 35 19 12 11 5 18 25 16 16 25 43 50 54 52 57 64 66 67 67 68 68 66 66 66 58 58 60
49 51 53 67 70 62 72 74 48 38 41 59 63 62 56 55 55 56 58 59 59 58 57 52 44 30 16 11 14 14 20 26 30 36 44 47 56 63 66 66 68 68 65 64 64 65 65 59 62
Wind_Direction
288 312 319 339 328 329 324 323 324 321 326 330 326 323 319 317 316 312 344 336 348 343 357 21 26 18 14 20 18 6 7 19 19 16 10 1 11 13 21 25 11 3 355 350 347 55 28 358 347
302 319 339 337 324 320 325 334 328 329 329 324 323 318 315 317 330 327 334 338 334 342 352 339 334 347 351 351 346 347 340 343 3 8 353 353 334 339 344 344 351 350 341 333 327 63 51 22 0
315 326 332 327 322 316 316 330 324 327 327 324 318 323 312 311 321 319 330 330 328 328 325 320 313 308 319 329 334 335 331 326 336 342 354 355 347 329 330 336 339 345 339 328 332 51 46 24 359
322 332 329 319 313 316 322 325 330 323 327 330 323 317 322 321 317 323 325 315 316 324 325 314 312 309 299 302 309 316 321 318 323 327 333 344 347 345 338 330 331 336 336 333 335 3 29 27 11
336 333 325 323 323 322 326 322 325 321 319 320 320 313 311 313 317 318 312 306 306 317 322 313 310 307 303 302 301 299 301 304 304 306 309 320 324 328 337 338 325 332 332 326 328 349 6 3 5
340 342 327 323 325 329 329 329 325 319 317 314 313 308 308 314 309 308 310 303 306 303 307 308 306 305 303 302 299 298 298 297 294 291 296 304 314 318 319 332 346 337 323 329 327 326 356 353 358
335 335 330 326 322 320 322 324 320 317 314 310 312 303 307 306 305 307 306 302 298 304 301 303 303 300 300 300 301 299 299 297 295 292 289 289 294 304 307 308 312 322 332 317 318 320 333 344 351
333 336 334 331 328 322 326 326 325 322 316 319 318 306 305 312 307 304 298 294 294 293 294 293 296 297 296 297 297 297 298 296 294 294 292 291 289 289 292 296 299 303 308 318 312 305 309 308 331
336 330 331 328 329 331 344 339 340 333 325 325 316 309 309 310 307 298 292 288 286 285 286 288 288 290 293 295 296 296 298 297 294 291 291 291 289 289 288 287 289 293 297 301 302 302 297 297 293
346 337 336 347 342 337 338 339 338 336 330 322 318 315 311 307 299 293 289 283 280 279 277 278 282 286 287 290 294 294 295 295 296 295 291 288 290 288 288 286 285 285 289 291 293 295 300 295 289
353 346 344 359 0 3 360 350 347 340 332 329 322 315 309 309 303 296 293 286 280 276 276 276 277 281 284 286 289 292 294 295 294 295 293 288 285 290 288 285 284 284 284 287 289 290 292 289 288
354 41 45 34 16 6 359 353 346 334 323 331 324 325 319 308 302 298 290 286 283 279 275 276 278 279 278 283 287 288 290 293 294 293 293 292 288 284 284 286 285 283 283 283 285 286 285 284 284
138 70 34 23 5 2 356 349 345 334 336 340 337 330 325 317 308 300 295 285 278 274 276 274 274 274 278 279 282 286 288 289 292 292 293 290 287 284 281 280 286 286 283 281 282 282 282 281 281
59 45 337 14 17 12 2 352 359 358 354 350 348 335 325 320 314 304 293 284 279 275 272 272 272 270 273 277 281 283 288 290 291 291 290 289 287 285 281 279 276 281 287 285 282 281 281 281 280
71 50 27 35 26 15 9 8 18 12 8 355 347 338 329 322 312 303 295 285 276 273 272 269 268 267 268 272 277 282 285 288 291 291 290 287 287 286 283 278 277 275 280 288 287 284 283 282 283
59 45 31 25 16 16 17 8 7 8 358 358 358 356 351 346 329 313 302 286 279 275 273 267 265 264 268 271 275 280 285 287 289 291 292 289 287 286 285 282 280 280 279 282 288 286 283 281 280
34 32 12 15 15 13 16 353 9 358 1 5 4 2 2 358 356 1 338 301 285 275 266 265 262 264 268 271 276 280 284 287 289 290 292 292 289 288 287 286 286 286 286 284 286 289 285 282 280
28 12 9 2 7 2 351 345 1 2 10 9 9 9 13 16 23 54 82 331 292 287 273 264 266 265 269 273 278 281 284 287 290 291 292 293 294 292 291 290 290 289 288 287 286 285 286 285 282
5 4 356 351 2 356 4 351 360 9 16 17 15 18 21 29 40 61 87 74 325 306 283 268 270 271 273 274 277 280 283 287 291 294 296 295 296 296 294 293 292 292 290 289 287 286 283 282 283
4 356 353 358 360 355 3 357 9 20 19 21 21 24 28 35 48 65 85 120 100 31 317 282 269 274 278 279 280 282 286 289 292 293 294 294 294 295 296 295 294 292 291 289 287 284 285 283 280
357 354 354 351 352 4 2 11 20 23 25 24 26 27 33 40 49 69 86 110 120 129 133 74 288 283 287 286 284 284 287 290 292 295 298 301 299 298 298 296 295 292 290 288 287 286 283 281 282
351 358 351 351 353 355 1 0 12 15 18 22 24 29 34 42 53 66 84 103 113 125 175 180 172 291 288 286 288 289 288 288 292 295 297 300 302 303 300 299 296 294 292 288 286 287 284 283 280
350 343 345 349 352 351 359 357 4 11 12 18 23 30 36 42 52 63 86 107 113 122 135 190 193 179 304 284 287 286 284 289 294 298 298 302 305 306 306 303 301 298 295 292 289 284 284 282 281
345 343 342 346 350 348 358 357 358 2 10 15 20 26 34 40 48 60 72 90 102 122 152 165 152 149 15 312 284 286 287 287 292 296 299 303 308 310 309 306 302 300 298 296 295 291 284 282 282
345 345 340 341 343 346 355 349 356 5 11 14 17 22 27 33 39 48 61 73 92 107 121 144 165 163 103 357 329 302 287 285 286 290 296 299 303 305 306 309 307 305 304 303 301 297 293 287 284
345 349 344 338 338 337 342 349 355 6 13 17 16 19 18 24 28 36 46 57 66 90 132 157 165 167 86 356 339 334 320 304 299 299 304 303 305 308 315 316 314 309 305 305 304 300 296 292 288
342 341 347 338 338 338 346 350 358 6 10 6 2 3 3 5 11 20 25 30 43 62 91 175 196 204 202 205 296 329 322 319 313 308 308 308 306 306 309 312 312 312 312 309 305 301 296 293 292
342 342 335 339 333 331 335 337 340 349 355 354 355 357 357 360 3 6 8 14 21 37 54 67 172 215 217 217 219 225 231 290 315 309 310 310 307 307 309 310 312 312 313 314 307 306 302 297 294
334 333 334 333 331 328 328 334 346 341 343 347 349 353 355 353 355 355 358 3 6 6 10 22 28 7 259 227 226 238 260 307 310 308 307 308 307 305 305 307 312 315 316 318 318 313 309 303 300
331 328 327 323 322 321 318 318 333 347 352 348 347 348 350 351 352 352 350 349 349 349 346 347 350 355 352 338 331 312 316 315 311 310 311 307 304 303 304 308 311 314 318 322 324 322 318 310 302